This is the latest recevied weather packets stored in our database for station/object W6MAF. If no packets are shown the sender has not sent any weather packets the latest 10 day(s).
| Time | Temp. | Humidity | Pressure | Rain* | Wind** | Luminosity | Snow |
|---|---|---|---|---|---|---|---|
| 1788065719 | 23.33° C | 30% | - | 0 mm | 1.34 m/s, 238° | - | - |
| 1788065421 | 23.33° C | 28% | - | 0 mm | 1.79 m/s, 232° | - | - |
| 1788064823 | 23.89° C | 26% | - | 0 mm | 0 m/s | - | - |
| 1788064822 | 23.89° C | 26% | - | 0 mm | 0 m/s | - | - |
| 1788064525 | 23.89° C | 25% | - | 0 mm | 0 m/s | - | - |
| 1788064227 | 23.89° C | 25% | - | 0 mm | 0 m/s | - | - |
| 1788063929 | 23.89° C | 25% | - | 0 mm | 0 m/s | - | - |
| 1788063632 | 23.89° C | 25% | - | 0 mm | 0 m/s | - | - |
| 1788063334 | 23.89° C | 24% | - | 0 mm | 2.68 m/s, 295° | - | - |
| 1788063033 | 24.44° C | 23% | - | 0 mm | 1.34 m/s, 333° | - | - |
| 1788062735 | 24.44° C | 22% | - | 0 mm | 3.58 m/s, 328° | - | - |
| 1788062438 | 24.44° C | 22% | - | 0 mm | 0.45 m/s, 325° | - | - |
| 1788062140 | 24.44° C | 21% | - | 0 mm | 0 m/s | - | - |
| 1788061842 | 25° C | 21% | - | 0 mm | 0.45 m/s, 169° | - | - |
| 1788061544 | 25° C | 22% | - | 0 mm | 2.68 m/s, 239° | - | - |
| 1788061257 | 24.44° C | 22% | - | 0 mm | 4.02 m/s, 184° | - | - |
| 1788060946 | 24.44° C | 23% | - | 0 mm | 3.58 m/s, 184° | - | - |
| 1788060648 | 24.44° C | 24% | - | 0 mm | 4.02 m/s, 165° | - | - |
| 1788060350 | 24.44° C | 25% | - | 0 mm | 3.58 m/s, 191° | - | - |
| 1788060053 | 24.44° C | 26% | - | 0 mm | 4.47 m/s, 173° | - | - |
| 1788059755 | 24.44° C | 27% | - | 0 mm | 5.36 m/s, 191° | - | - |
| 1788059454 | 24.44° C | 27% | - | 0 mm | 6.26 m/s, 187° | - | - |
| 1788059156 | 24.44° C | 27% | - | 0 mm | 6.26 m/s, 153° | - | - |
| 1788058858 | 24.44° C | 27% | - | 0 mm | 7.15 m/s, 177° | - | - |
| 1788058562 | 25° C | 27% | - | 0 mm | 6.71 m/s, 181° | - | - |
* Rain latest hour (hover to see other rain measurements)
** Current wind speed in m/s (hover to see current wind gust speed)